[[{"header":{"parameterUnit":"m.s-1","parameterCategory":1,"la1":30.2991,"la2":30.254,"lo1":-89.0895,"lo2":-89.0444,"dy":0.0017,"dx":0.0017,"nx":28,"ny":28,"refTime":"2025-04-11T21:00:00:Z","depth":0,"parameterNumber":2,"parameterNumberName":"U-component_of_WINDS"},"data":[0,0,0,0,0,0,0,0,0,0,0,0,0,0,0,0,0,0,0,0,0,0,0,0,0,0,0,0,0,0,0,0,0,0,0,0,0,0,0,0,0,0,0,0,0,0,0,0,0,0,0,0,0,0,0,0,0,0,-1.414,-1.4141,0,-1.4169,-1.417,-1.417,-1.418,-1.418,-1.418,-1.418,-1.4209,-1.421,-1.4211,0,0,0,0,0,0,0,0,0,0,0,0,0,-1.4095,-1.4096,-1.414,-1.4141,-1.4141,-1.4169,-1.417,-1.417,-1.418,-1.418,-1.418,-1.418,-1.4209,-1.421,-1.4211,0,0,0,0,0,0,0,0,0,0,0,0,0,-1.4119,-1.4096,-1.414,-1.415,-1.4151,-1.4169,-1.417,-1.417,-1.418,-1.418,-1.418,-1.418,-1.4209,-1.421,-1.4211,-1.4222,0,0,-1.4215,-1.4216,0,0,0,0,0,0,0,0,-1.4117,-1.412,-1.4148,-1.4149,-1.415,-1.4171,-1.4164,-1.4188,-1.418,-1.4169,-1.418,-1.418,-1.4197,-1.4199,-1.4205,-1.4224,-1.4225,-1.4215,-1.4216,-1.4217,-1.4217,0,0,0,0,0,0,0,-1.4116,-1.4119,-1.4152,-1.4148,-1.415,-1.4153,-1.4156,-1.4169,-1.4183,-1.417,-1.4171,-1.4174,-1.4197,-1.4203,-1.4206,-1.4225,-1.4215,-1.4217,-1.4217,-1.4218,-1.4256,-1.4256,0,0,0,0,0,0,-1.4112,-1.4118,-1.4151,-1.4153,-1.4133,-1.4154,-1.4157,-1.4165,-1.4183,-1.4186,-1.4174,-1.4175,-1.4201,-1.4204,-1.4207,-1.4221,-1.4217,-1.4218,-1.4219,-1.4256,-1.4256,-1.4256,0,0,0,0,0,0,-1.4111,-1.4115,-1.415,-1.4135,-1.414,-1.4155,-1.4163,-1.4165,-1.4171,-1.4186,-1.4189,-1.4178,-1.4201,-1.4205,-1.4219,-1.4222,-1.4219,-1.422,-1.4255,-1.4256,-1.4256,-1.425,0,0,0,0,0,0,-1.411,-1.4115,-1.4119,-1.4135,-1.4141,-1.4161,-1.4163,-1.4166,-1.4174,-1.4174,-1.419,-1.4193,-1.4201,-1.4217,-1.422,-1.4224,-1.4221,-1.4255,-1.4256,-1.4256,-1.425,-1.425,-1.425,0,0,0,0,0,-1.4108,-1.4116,-1.4119,-1.4123,-1.4146,-1.4161,-1.4164,-1.4174,-1.4174,-1.4178,-1.4188,-1.4192,-1.4222,-1.4218,-1.4222,-1.4226,-1.4255,-1.4255,-1.4256,-1.425,-1.425,-1.425,0,0,0,0,0,0,-1.4099,-1.4118,-1.4122,-1.4135,-1.4146,-1.4163,-1.4168,-1.4173,-1.4185,-1.4185,-1.4197,-1.42,-1.4213,-1.4221,-1.4217,-1.4238,-1.4239,-1.424,-1.4233,-1.4233,-1.4233,-1.4231,-1.4222,0,0,0,0,0,-1.4098,-1.4109,-1.4125,-1.4135,-1.414,-1.4154,-1.416,-1.4167,-1.4179,-1.4184,-1.4195,-1.4207,-1.4219,-1.4226,-1.4238,-1.4251,-1.4255,-1.4257,-1.4257,-1.4257,-1.4258,-1.4266,-1.4267,-1.4258,-1.4258,-1.4258,0,0,-1.4097,-1.4109,-1.4115,-1.4133,-1.4143,-1.4154,-1.4157,-1.4169,-1.4177,-1.4186,-1.42,-1.4208,-1.4222,-1.4236,-1.4243,-1.4243,-1.4261,-1.4257,-1.4257,-1.4258,-1.4266,-1.4267,-1.4268,-1.4258,-1.4258,-1.4258,0,0,-1.4101,-1.411,-1.412,-1.413,-1.4145,-1.4153,-1.4156,-1.4172,-1.4178,-1.4192,-1.4199,-1.421,-1.423,-1.424,-1.4247,-1.4256,-1.4261,-1.426,-1.426,-1.4268,-1.4269,-1.427,-1.4273,-1.4274,-1.4261,-1.4261,-1.4261,0,-1.4097,-1.4113,-1.4124,-1.4135,-1.4143,-1.4153,-1.4163,-1.4172,-1.4189,-1.4195,-1.4195,-1.4222,-1.4232,-1.4248,-1.4251,-1.4256,-1.426,-1.4257,-1.4268,-1.4269,-1.4269,-1.4273,-1.4274,-1.426,-1.426,-1.426,-1.426,0,-1.4109,-1.412,-1.4126,-1.4143,-1.4152,-1.4163,-1.4175,-1.4183,-1.419,-1.4198,-1.4213,-1.4226,-1.4241,-1.4246,-1.4251,-1.4263,-1.4263,-1.4266,-1.4266,-1.427,-1.4273,-1.4275,-1.426,-1.426,-1.426,-1.426,0,0,-1.4106,-1.413,-1.4132,-1.414,-1.4158,-1.4167,-1.4178,-1.4193,-1.4199,-1.4212,-1.4222,-1.4239,-1.4242,-1.4251,-1.4258,-1.4265,-1.4272,-1.4267,-1.4268,-1.4268,-1.4286,-1.4284,-1.4285,-1.4276,-1.4276,-1.4276,-1.4285,0,-1.4112,-1.4132,-1.4142,-1.4158,-1.4169,-1.4179,-1.4189,-1.4201,-1.421,-1.4221,-1.4231,-1.4243,-1.4246,-1.4251,-1.4259,-1.427,-1.4276,-1.4269,-1.4285,-1.4286,-1.4281,-1.4287,-1.4284,-1.4292,-1.4286,-1.4287,-1.4287,0,-1.412,-1.4133,-1.415,-1.4167,-1.4172,-1.4181,-1.4195,-1.4206,-1.422,-1.4226,-1.4237,-1.4244,-1.4257,-1.4257,-1.4275,-1.4271,-1.4278,-1.4285,-1.4285,-1.4287,-1.4286,-1.4288,-1.4295,-1.4296,-1.4289,-1.4289,-1.4289,0,-1.4117,-1.4138,-1.4151,-1.4158,-1.4178,-1.4184,-1.4193,-1.4207,-1.4215,-1.4229,-1.4234,-1.4249,-1.4257,-1.4268,-1.428,-1.4279,-1.4297,-1.4298,-1.4303,-1.4302,-1.4305,-1.4305,-1.4313,-1.4311,-1.4311,-1.4311,-1.4311,0,-1.4122,-1.4132,-1.415,-1.4157,-1.4169,-1.4182,-1.4193,-1.4203,-1.4216,-1.4226,-1.4235,-1.4245,-1.426,-1.4272,-1.4281,-1.4295,-1.4298,-1.4304,-1.4306,-1.4303,-1.4302,-1.4307,-1.4307,-1.4311,-1.4311,-1.4311,-1.4311,0,-1.4119,-1.4131,-1.4146,-1.4165,-1.4169,-1.4177,-1.4193,-1.4202,-1.4212,-1.4225,-1.4229,-1.4244,-1.4259,-1.4272,-1.4291,-1.4297,-1.4311,-1.4314,-1.4306,-1.4307,-1.4311,-1.4311,-1.4323,-1.4325,-1.4322,-1.4322,-1.4322,0,-1.4121,-1.4129,-1.4148,-1.4156,-1.4165,-1.4177,-1.4186,-1.4199,-1.4207,-1.4225,-1.4231,-1.4247,-1.4259,-1.4282,-1.4295,-1.431,-1.4314,-1.4317,-1.4316,-1.4313,-1.4314,-1.4313,-1.4314,-1.4317,-1.4316,-1.4316,-1.4316,0,-1.4124,-1.413,-1.4142,-1.4157,-1.4167,-1.4179,-1.4192,-1.4197,-1.4213,-1.4223,-1.4237,-1.4247,-1.4267,-1.4282,-1.4299,-1.4309,-1.4315,-1.4317,-1.4319,-1.4315,-1.431,-1.4313,-1.4306,-1.4316,-1.4316,-1.4316,-1.4316,-1.4316,-1.4124,-1.4131,-1.4146,-1.416,-1.4171,-1.4182,-1.4191,-1.4203,-1.4215,-1.4232,-1.4239,-1.4255,-1.427,-1.4293,-1.4303,-1.4315,-1.4316,-1.4319,-1.432,-1.432,-1.4319,-1.4309,-1.4318,-1.4318,-1.4318,-1.4318,-1.4318,0,-1.4127,-1.4137,-1.4149,-1.4167,-1.4177,-1.4183,-1.4198,-1.4206,-1.4219,-1.4233,-1.4246,-1.4263,-1.4278,-1.4293,-1.4309,-1.4316,-1.432,-1.432,-1.4319,-1.4322,-1.4317,-1.4314,-1.4317,-1.4317,-1.4317,-1.4317,-1.4317,-1.4317,-1.413,-1.4143,-1.4151,-1.417,-1.418,-1.4195,-1.4203,-1.4214,-1.4225,-1.4244,-1.4257,-1.4266,-1.4281,-1.4298,-1.4312,-1.4316,-1.4322,-1.4321,-1.4326,-1.4322,-1.4322,-1.4322,-1.4319,-1.4322,-1.4322,-1.4329,-1.4329,-1.4329]},{"header":{"parameterUnit":"m.s-1","parameterCategory":1,"la1":30.2991,"la2":30.254,"lo1":-89.0895,"lo2":-89.0444,"dy":0.0017,"dx":0.0017,"nx":28,"ny":28,"refTime":"2025-04-11T21:00:00:Z","depth":0,"parameterNumber":3,"parameterNumberName":"V-component_of_WINDS"},"data":[0,0,0,0,0,0,0,0,0,0,0,0,0,0,0,0,0,0,0,0,0,0,0,0,0,0,0,0,0,0,0,0,0,0,0,0,0,0,0,0,0,0,0,0,0,0,0,0,0,0,0,0,0,0,0,0,0,0,4.0438,4.0439,0,4.0461,4.0461,4.0462,4.0495,4.0495,4.0496,4.0497,4.0517,4.0517,4.0517,0,0,0,0,0,0,0,0,0,0,0,0,0,4.0421,4.0421,4.0438,4.0439,4.0439,4.0461,4.0461,4.0462,4.0495,4.0495,4.0496,4.0497,4.0517,4.0517,4.0517,0,0,0,0,0,0,0,0,0,0,0,0,0,4.0435,4.0421,4.0438,4.0458,4.046,4.0461,4.0461,4.0462,4.0495,4.0495,4.0496,4.0497,4.0517,4.0517,4.0517,4.0499,0,0,4.0516,4.0516,0,0,0,0,0,0,0,0,4.0434,4.0435,4.0455,4.0457,4.0459,4.0476,4.0463,4.0474,4.0494,4.0481,4.0497,4.0498,4.0502,4.0503,4.0506,4.05,4.0501,4.0516,4.0516,4.0516,4.0516,0,0,0,0,0,0,0,4.0433,4.0434,4.0447,4.0455,4.0458,4.0465,4.0468,4.0465,4.0486,4.0483,4.0485,4.0487,4.0503,4.0506,4.0506,4.0501,4.0516,4.0516,4.0516,4.0516,4.0483,4.0482,0,0,0,0,0,0,4.0429,4.0433,4.0446,4.0448,4.0448,4.0465,4.0468,4.047,4.0487,4.049,4.0487,4.0489,4.0505,4.0506,4.0507,4.0488,4.0516,4.0516,4.0516,4.0484,4.0483,4.0482,0,0,0,0,0,0,4.0429,4.043,4.0446,4.0441,4.0444,4.0464,4.0466,4.047,4.0472,4.049,4.0493,4.0485,4.0506,4.0507,4.0501,4.0489,4.0516,4.0516,4.0485,4.0483,4.0482,4.045,0,0,0,0,0,0,4.0428,4.043,4.0424,4.0441,4.0444,4.044,4.0465,4.0469,4.0472,4.0475,4.0489,4.0492,4.0507,4.0501,4.0501,4.049,4.0516,4.0486,4.0484,4.0483,4.0452,4.0448,4.0444,0,0,0,0,0,4.0428,4.0413,4.0423,4.0425,4.0437,4.0439,4.0441,4.0458,4.0471,4.0465,4.0477,4.0492,4.0491,4.05,4.0501,4.0489,4.0487,4.0485,4.0483,4.0454,4.0449,4.0444,0,0,0,0,0,0,4.0392,4.0415,4.0427,4.0418,4.0426,4.0445,4.0437,4.0452,4.0456,4.0459,4.048,4.0482,4.0474,4.0481,4.0491,4.0473,4.0491,4.0489,4.0469,4.0464,4.046,4.0459,4.0516,0,0,0,0,0,4.0383,4.0384,4.0404,4.0394,4.0398,4.0417,4.0418,4.0431,4.044,4.0444,4.0455,4.0463,4.0464,4.0464,4.0467,4.0453,4.0457,4.0446,4.0442,4.0438,4.0436,4.043,4.0426,4.0475,4.0475,4.0475,0,0,4.0365,4.0378,4.0377,4.0387,4.0395,4.0395,4.0419,4.0417,4.0417,4.0443,4.0439,4.0447,4.0457,4.0448,4.0444,4.0453,4.0424,4.0436,4.0433,4.0433,4.0428,4.0423,4.0419,4.0474,4.0474,4.0474,0,0,4.0331,4.0341,4.0334,4.0342,4.0355,4.0368,4.0366,4.0383,4.039,4.0386,4.0406,4.0405,4.0407,4.0414,4.0417,4.0388,4.0402,4.0388,4.0366,4.036,4.0356,4.0353,4.0343,4.0339,4.0386,4.0386,4.0386,0,4.0307,4.0308,4.0328,4.0326,4.033,4.0355,4.0348,4.0355,4.0367,4.0369,4.0379,4.0383,4.0391,4.0384,4.0377,4.0379,4.0378,4.0386,4.0356,4.0352,4.035,4.034,4.0336,4.0384,4.0384,4.0384,4.0384,0,4.0277,4.0277,4.027,4.0283,4.0286,4.0281,4.0301,4.0302,4.0315,4.0327,4.0322,4.0334,4.0339,4.0338,4.035,4.0333,4.0339,4.0352,4.037,4.0343,4.0334,4.0331,4.0381,4.0382,4.0383,4.0383,0,0,4.0221,4.0247,4.0244,4.025,4.0267,4.0267,4.0263,4.027,4.027,4.0278,4.0275,4.0277,4.029,4.0294,4.0307,4.0302,4.0279,4.0317,4.0317,4.031,4.0261,4.0251,4.0247,4.0289,4.0288,4.0288,4.0261,0,4.0191,4.0187,4.0206,4.0197,4.0198,4.0223,4.022,4.0229,4.024,4.0242,4.0254,4.0255,4.0272,4.0275,4.0271,4.0283,4.027,4.0285,4.0286,4.0286,4.0283,4.0242,4.0232,4.0205,4.0257,4.0257,4.0256,0,4.0155,4.0163,4.0154,4.0172,4.0173,4.017,4.0179,4.018,4.0191,4.02,4.0205,4.0221,4.0218,4.0236,4.0232,4.0242,4.0244,4.025,4.025,4.025,4.027,4.0242,4.0197,4.0194,4.0251,4.0252,4.0252,0,4.0116,4.0124,4.012,4.0125,4.0145,4.0143,4.0151,4.0164,4.0167,4.0174,4.0176,4.0182,4.0185,4.0189,4.0206,4.0217,4.0201,4.0219,4.0207,4.0207,4.0203,4.0203,4.0158,4.0203,4.0203,4.0203,4.0203,0,4.008,4.0074,4.0103,4.01,4.0095,4.0116,4.011,4.012,4.0131,4.0131,4.0152,4.0151,4.0173,4.0175,4.0188,4.0184,4.0185,4.0191,4.0195,4.019,4.0189,4.0191,4.0193,4.0202,4.0203,4.0203,4.0203,0,4.0035,4.0054,4.0052,4.0072,4.0077,4.0072,4.0089,4.0088,4.0101,4.01,4.0101,4.0121,4.0124,4.0142,4.0148,4.0157,4.0148,4.0155,4.0145,4.0147,4.0135,4.0136,4.009,4.0085,4.0133,4.0132,4.0132,0,4.0011,4.0008,4.0028,4.003,4.0038,4.0041,4.0045,4.0066,4.0069,4.0083,4.008,4.0085,4.009,4.0094,4.0108,4.0114,4.0121,4.0105,4.0122,4.0117,4.0121,4.0122,4.0122,4.0101,4.01,4.01,4.0099,0,3.9967,3.9977,3.9983,3.9992,3.9996,4.0004,4.0013,4.0013,4.0037,4.0039,4.0043,4.0047,4.0055,4.006,4.0068,4.0076,4.0091,4.0094,4.0091,4.0086,4.0081,4.0084,4.0135,4.0095,4.0095,4.0095,4.0096,4.0096,3.9933,3.9931,3.9946,3.9951,3.9961,3.9969,3.9969,3.9982,3.9987,3.9996,4.0008,4.001,4.0022,4.0035,4.0042,4.0044,4.0053,4.0049,4.0048,4.0047,4.0045,4.008,4.0045,4.0046,4.0046,4.0046,4.0046,0,3.9891,3.9902,3.9907,3.9919,3.9924,3.9939,3.995,3.9952,3.9955,3.9965,3.9971,3.9976,3.9981,3.9996,4.0003,4.0002,4.0009,4.0003,4.0003,4.0005,4.0036,4.0038,3.9997,3.9997,3.9997,3.9997,3.9997,3.9997,3.9869,3.9867,3.9879,3.9882,3.9893,3.9897,3.9902,3.991,3.9918,3.9924,3.9928,3.9939,3.9951,3.9959,3.9965,3.9969,3.9971,3.9962,3.9969,3.9998,4.0002,4.0007,4.0009,3.9962,3.9962,3.9937,3.9937,3.9937]}]]